PROFILE

 METAR AND TAF INFORMATION
ADDS - METARS form results

(2331 UTC 26 May 2019)
http://aviationweather.gov/metar/data/
 
KPSP 262253Z 03010G15KT 340V070 10SM OVC100 22/05 A2984 RMK AO2 SLP101 T02220050 $
KPSP 261727Z 2618/2718 32020G30KT P6SM SCT120 FM270900 33012G20KT P6SM FEW100 

 AIRPORT MAP

 RUNWAY INFORMATION
Runway 13L Runway length 4952 ft Runway width 75 ft
Runway elevation 449 ft Runway displaced threshold 0 ft Runway heading 144
Runway 31R Runway length 4952 ft Runway width 75 ft
Runway elevation 407 ft Runway displaced threshold 0 ft Runway heading 324
Runway 13R Runway length 10000 ft Runway width 150 ft
Runway elevation 451 ft Runway displaced threshold 3000 ft Runway heading 144
Runway 31L Runway length 10000 ft Runway width 150 ft
Runway elevation 405 ft Runway displaced threshold 1500 ft Runway heading 324

 AIRPORT FREQUENCIES
Type A/D Name APP/DEP Frequency 126.7 MHZ
Type ATIS Name ATIS Frequency 118.25 MHZ
Type CLD Name CLNC DEL Frequency 128.35 MHZ
Type CTAF Name CTAF Frequency 119.7 MHZ
Type GND Name GND Frequency 121.9 MHZ
Type RDO Name RIVERSIDE Frequency 115.5 MHZ
Type TWR Name TWR Frequency 119.7 MHZ
Type UNIC Name UNICOM Frequency 122.95 MHZ

 AIRPORT NEAR NAVIGATION AIDS
Type VORTAC Name Palm Springs Frequency 115500 KHZ